Orbital Elements at Epoch 2459200.5 (2020-Dec-17.0) TDB
Reference: JPL 18 (heliocentric ecliptic J2000)
Element | Value | Uncertainty (1-sigma) | Units |
e | .1432928386187565 | 4.3552e-08 | |
a | 2.373573414902215 | 1.3362e-08 | au |
q | 2.033457342610861 | 9.9372e-08 | au |
i | 4.831675639670934 | 4.6686e-06 | deg |
node | 118.3472999110859 | 5.2748e-05 | deg |
peri | 95.42696734692838 | 5.6178e-05 | deg |
M | 216.4986204382559 | 2.1916e-05 | deg |
tp | 2459732.922016419611 (2022-Jun-02.42201642) | 8.4566e-05 | TDB |
period | 1335.680022703822 3.66 | 1.1279e-05 3.088e-08 | d yr |
n | .2695256303012235 | 2.276e-09 | deg/d |
Q | 2.713689487193569 | 1.5277e-08 | au |
|
| | Orbit Determination Parameters
Additional Information
|